CZ-6A DEB, 54487

Orbit data source: Space-Track

CZ-6A DEB, 54487 is space debris in SSO originally from a launch on Fri, 11 Nov 2022 UTC launched from the Taiyaun Space Center, China (TSC). Debris objects in space refer to the collection of defunct objects orbiting the Earth. Examples of debris include non-operational satellites, rocket bodies, and fragments generated from explosions, collisions, or faulty payload assembly.

Loading next visibility...
Identifier
54487, 2022-151HP
Orbit
SSO
Country
Flag of CNCN / PRC
Related business
Manufacturer
SAST
Mission
Spacecraft
Bus & Motor
Unknown
Mass
Unknown
Launch date (UTC)
2022-11-11 (4 years ago)
Launch vehicle
Unknown
Launch site
Taiyaun Space Center, China (TSC)
Object type
Payload
Rocket body
Debris
Shape & HBR
Unknown shape, 0.1 m
Radar Cross Section
Medium (>0.1 m² and <1 m²)

Expand to show TLE details & history
Last TLE update: 3 days ago

TLE from 3 days ago
0 CZ-6A DEB
1 54487U 22151HP  26170.75317187  .00029430  00000-0  27530-2 0  9991
2 54487  98.6482 251.5401 0043104 235.5655 124.1485 14.93339404189359
Epoch: 2026-06-19T18:04Z
TLE epoch observation values (Epoch: 2026-06-19T18:04:34.049Z)
Latitude
-0.00001°
Longitude
72.4206°
Altitude
607.494 km
Speed
7.546 km/s
True Right ascension
16h 46m 09s
True Declination
0° 00' 00"
Sunlit
Object was in full shadow at epoch
Visualization orbit readout
Latitude
Unknown
Longitude
Unknown
Altitude
Unknown
Speed
Unknown
Apparent Right ascension
Unknown
Apparent Declination
Unknown
Sunlit
N/A
Visualization observer readout
Local Sidereal Time
21:52:39
Azimuth
Unknown
Elevation
Unknown
Doppler factor
Unknown
Orbital elements
Apogee altitude
614.602 km
Perigee altitude
554.578 km
Semi-major axis
6,962.727 km
Eccentricity
0.00431
Inclination
98.6482°
RAAN
251.5401°
Arg. of periapsis
235.5655°
True anomaly
124.55604°
Mean anomaly
124.1485°
Eccentric anomaly
124.35239°
Mean motion
3.73572 °/min
Orbital period
96.37 mins
BSTAR
0.002753
Loading maneuver chart data...
Computing Atmospheric mass density...
Loading historical data...
Loading historical data...
Loading historical data...
Loading historical data...
Loading historical data...
Loading historical data...
Loading historical data...

Documentation

Showing up to 5 results
|